Flag for Norway Weather past 2 weeks in Langesund, Norway

Now
69 °F

Mild.


Feels Like: 69 °F
Forecast: 52 / 71 °F
Wind: 3 mph from South

Location: Jomfruland Fyr

Current Time: Jul 2, 2015 at 7:19:10 PM

Latest Report: Jul 2, 2015 at 6:00 PM


Visibility: N/A

Pressure: 30.31 "Hg

Humidity: 62%

Dew point: 56 °F

Location of LangesundLocation

Historic Weather in Langesund — Graph

°F

Langesund temperature yesterday

Maximum temperature yesterday: 69 °F (at 12:00 PM)
Minimum temperature yesterday: 56 °F (at 4:00 AM)
Average temperature yesterday: 62 °F

Past Weeks' High & Low Weather Summary

 TemperatureHumidityPressure
High69 °F (Jun 30, 11:00 AM)95% (Jul 1, 5:00 AM)30.36 "Hg (Jul 1, 5:00 AM)
Low50 °F (Jun 22, 3:00 AM)29% (Jun 25, 8:00 PM)29.61 "Hg (Jun 18, 7:00 AM)
Average59 °F73%29.90 "Hg
* Reported Jun 17 5:00 PM — Jul 2 5:00 PM, Langesund, Weather by CustomWeather, © 2015

Note: Actual official high and low records may vary slightly from our data, if they occured in-between our weather recording intervals... More about our weather records

Advertising

Langesund weather history for previous 24 hours

 ConditionsComfort  
Time TempWeatherWind HumidityBarometerVisibility
5:00 PM
Thu, Jul 2
69 °FMild.2 mph62%30.32 "HgN/A
4:00 PM68 °FMild.3 mph65%30.33 "HgN/A
3:00 PM69 °FMild.2 mph63%30.33 "HgN/A
2:00 PM68 °FMild.3 mph61%30.34 "HgN/A
1:00 PM69 °FMild.2 mph68%30.35 "HgN/A
12:00 PM68 °FMild.3 mph72%30.36 "HgN/A
11:00 AM68 °FMild.3 mph69%30.34 "HgN/A
10:00 AM67 °FMild.3 mph72%30.35 "HgN/A
9:00 AM66 °FMild.3 mph70%30.34 "HgN/A
8:00 AM65 °FMild.2 mph76%30.34 "HgN/A
7:00 AM61 °FCool.3 mph85%30.33 "HgN/A
6:00 AM58 °FCool.2 mph93%30.32 "HgN/A
5:00 AM56 °FCool.2 mph95%30.32 "HgN/A
4:00 AM55 °FCool.2 mph94%30.31 "HgN/A
3:00 AM56 °FCool.1 mph94%30.31 "HgN/A
2:00 AM57 °FCool.1 mph93%30.31 "HgN/A
1:00 AM56 °FCool.2 mph92%30.30 "HgN/A
12:00 AM57 °FCool.1 mph92%30.29 "HgN/A
11:00 PM
Wed, Jul 1
60 °FCool.1 mph87%30.29 "HgN/A
10:00 PM62 °FCool.3 mph83%30.28 "HgN/A
9:00 PM63 °FMild.5 mph79%30.27 "HgN/A
8:00 PM64 °FMild.5 mph69%30.26 "HgN/A
7:00 PM64 °FMild.7 mph73%30.25 "HgN/A
Weather by CustomWeather, © 2015

See weather overviewHow to use our weather pages